www.pogodaiklimat.ru

Погода и климат >> Архив погоды >> Хорватия >> Загреб-Градец


ПОГОДА в Загреб-Градеце

  • Прогноз погоды в Загреб-Градеце
  • Монитор погоды в Загреб-Градеце

АРХИВ ПОГОДЫ в Загреб-Градеце

Время (UTC), дата Ветер
(напр.,м/с)
 
Видим.   Явления Облачность Т
(С)
Тd
(С)
f
(%)
Тe
(С)
Тes
(С)
Комфортность P
(гПа)
Po
(гПа)
Тmin
(С)
Tmax
(С)
R
(мм)
R24
(мм)
S
(см)
03 16.08 В 1 н/о н/о +17.7 +12.4 71 +19 +19 1016.3 997.2
04 16.08 штиль 0 н/о н/о +17.5 +13.1 75 +18 +18 1016.6 997.5
05 16.08 В 1 н/о н/о +17.8 +13.0 73 +19 +19 1016.9 997.8
06 16.08 В 1 30 км осадки на расстоянии 10/4 1000 м
[Sc Ac As]
+18.1 +13.3 74 +19 +20 1016.7 997.7 +17.4
07 16.08 Ю 1 25 км осадки на расстоянии 10/6 1000 м
[Sc Ac As]
+18.3 +13.5 74 +20 +21 1017.2 998.2
08 16.08 ЮВ 1 15 км дождь 10/5 1000 м
[Sc As op]
+18.2 +14.0 76 +20 +21 1018.1 999.0
09 16.08 З 1 15 км дождь 10/4 1000 м
[Sc As op]
+17.5 +15.6 89 +19 +20 1018.3 999.2
10 16.08 З 1 20 км слаб. дождь 10/5 1000 м
[Sc As op]
+18.0 +15.6 86 +19 +21 1018.5 999.4
11 16.08 СЗ 1 25 км слаб. дождь 9/9 1000 м
[Sc Ac trans]
+19.2 +16.0 82 +22 +24 комфорт 1018.4 999.4
12 16.08 ЮВ 1 60 км {дождь} 8/4 600 м
[Cu Sc Ac trans]
+20.5 +14.2 67 +24 +30 комфорт 1017.9 999.0 4
13 16.08 ЮЗ 2 >70 км 4/3 600 м
[Cu Sc Ac trans]
+22.0 +14.2 61 +25 +33 комфорт 1017.2 998.4
14 16.08 Ю 1 н/о н/о +25.0 +14.5 52 +28 +28 жарко 1017.1 998.4
15 16.08 СЗ 1 н/о н/о +25.3 +14.8 52 +28 +28 жарко 1016.9 998.2
16 16.08 ЮЗ 2 н/о н/о +24.3 +15.0 56 +27 +27 жарко 1016.7 998.0
17 16.08 В 1 н/о н/о +23.7 +14.7 57 +26 +26 жарко 1016.7 997.9
18 16.08 ЮВ 2 70 км 1/1 1500 м
[Cu hum Ac lent]
+22.3 +14.9 63 +26 +26 жарко 1016.6 997.8 +25.3 4
19 16.08 СВ 1 50 км 1/0
[Ac trans Ci fib]
+20.7 +15.5 72 +25 +25 комфорт 1017.1 998.2
20 16.08 С 1 40 км 1/0
[Ac trans]
+19.7 +15.6 77 +23 +23 комфорт 1017.7 998.8
21 16.08 Ю 1 н/о н/о +18.6 +15.0 80 +21 +21 комфорт 1018.4 999.3
00 17.08 штиль 0 н/о н/о +17.2 +13.8 80 +17 +17 1018.3 999.1
03 17.08 В 1 н/о н/о +16.2 +13.9 86 +17 +17 1017.7 998.4
04 17.08 В 1 н/о н/о +16.0 +13.4 85 +17 +17 1017.9 998.6
05 17.08 ЮЗ 1 н/о н/о +15.7 +13.8 88 +16 +16 1018.2 998.9
06 17.08 ЮЗ 1 20 км 3/0
[Ci fib]
+16.4 +14.3 87 +17 +20 1017.6 998.4 +15.4
07 17.08 З 1 40 км 4/0
[Ci sp]
+17.8 +14.4 80 +19 +25 1018.2 999.1
08 17.08 ЮЗ 1 70 км 8/0
[Ci sp]
+20.5 +14.8 70 +24 +33 комфорт 1017.9 999.0
09 17.08 Ю 2 >70 км 8/0
[Ci sp]
+21.5 +14.5 64 +24 +35 комфорт 1017.5 998.7
10 17.08 ЮЗ 2 >70 км 6/0
[Ac trans Ci sp]
+23.0 +14.3 58 +27 +39 душно 1017.0 998.3
11 17.08 ЮЗ 2 70 км 4/0
[Ac trans Ci sp]
+24.1 +14.1 54 +27 +40 жарко 1016.8 998.1
12 17.08 Ю 3 70 км 3/0
[Ci fib]
+24.8 +12.3 46 +27 +38 жарко 1016.2 997.6
13 17.08 Ю 3 70 км 3/0
[Ci sp]
+26.5 +13.3 44 +28 +38 жарко 1015.4 996.9
14 17.08 Ю 2 н/о н/о +27.7 +12.9 40 +29 +29 жарко 1015.3 996.8
15 17.08 ЮЗ 2 н/о н/о +28.2 +13.4 40 +30 +30 жарко 1015.1 996.7
16 17.08 ЮЗ 2 н/о н/о +27.3 +13.0 41 +29 +29 жарко 1014.8 996.3
17 17.08 Ю 2 н/о н/о +26.1 +13.3 45 +28 +28 жарко 1014.9 996.3
18 17.08 ЮЗ 1 60 км 6/0
[Ci sp]
+24.8 +14.2 52 +27 +27 жарко 1014.5 995.9 +27.9
19 17.08 С 1 40 км 4/0
[Ac trans Ci fib]
+23.2 +14.9 60 +27 +27 душно 1014.8 996.1
20 17.08 С 1 30 км 3/0
[Ci fib]
+22.0 +14.5 62 +25 +25 комфорт 1014.9 996.1
21 17.08 СВ 2 н/о н/о +21.0 +14.2 65 +25 +25 комфорт 1015.5 996.6
00 18.08 штиль 0 н/о н/о +19.4 +14.5 73 +21 +21 комфорт 1015.6 996.6
03 18.08 В 1 н/о н/о +18.2 +15.0 82 +20 +20 1015.2 996.1
04 18.08 ЮВ 1 н/о н/о +17.3 +14.6 84 +18 +18 1015.4 996.3
05 18.08 ЮЗ 1 н/о н/о +17.1 +14.8 86 +18 +18 1015.6 996.4
06 18.08 З 1 30 км 3/0
[Ac trans Ci fib]
+18.0 +15.4 85 +19 +22 1015.2 996.2 +17.0
07 18.08 Ю 2 40 км 1/0
[Ac trans Ci fib]
+20.2 +16.0 77 +24 +29 комфорт 1015.3 996.4
08 18.08 ЮЗ 1 60 км 1/0
[Ci fib]
+22.2 +16.0 68 +26 +37 душно 1015.1 996.4
09 18.08 Ю 2 >70 км ясно +24.3 +15.3 57 +27 +40 жарко 1015.1 996.5
10 18.08 Ю 2 >70 км ясно +26.0 +14.6 49 +28 +43 жарко 1014.7 996.2
11 18.08 ЮЗ 2 >70 км ясно +27.4 +15.2 47 +30 +46 жарко 1014.4 996.0
12 18.08 Ю 3 >70 км ясно +28.8 +16.4 47 +32 +44 душно 1014.1 995.8
13 18.08 ЮЗ 3 >70 км ясно +29.4 +16.1 45 +33 +43 душно 1013.9 995.6
14 18.08 З 2 н/о н/о +30.3 +17.5 46 +34 +34 очень
душно
1014.1 995.8
15 18.08 Ю 4 н/о н/о +30.9 +16.9 43 +34 +34 душно 1013.9 995.6
16 18.08 ЮЗ 4 н/о н/о +30.1 +17.3 46 +34 +34 очень
душно
1013.7 995.4
17 18.08 Ю 3 н/о н/о +29.3 +17.6 49 +33 +33 душно 1013.5 995.1
18 18.08 ЮЗ 2 60 км 3/0
[Ci sp]
+28.3 +17.8 53 +33 +33 очень
душно
1012.9 994.6 +30.6
19 18.08 С 1 40 км 4/0
[Ac lent Ci sp]
+26.5 +18.5 61 +31 +31 душно 1013.4 995.0
20 18.08 С 1 30 км ясно +25.1 +18.7 68 +30 +30 душно 1013.8 995.3
21 18.08 СЗ 1 н/о н/о +23.9 +18.6 72 +28 +28 душно 1014.4 995.7
00 19.08 З 2 н/о н/о +21.5 +18.2 81 +26 +26 душно 1014.9 996.0
03 19.08 ЮЗ 2 н/о н/о +19.7 +17.2 85 +23 +23 комфорт 1015.0 996.0
04 19.08 З 2 н/о н/о +19.4 +16.7 84 +22 +22 комфорт 1015.3 996.3
05 19.08 З 1 н/о н/о +19.2 +16.7 85 +22 +22 комфорт 1015.6 996.6
06 19.08 З 1 40 км ясно +20.2 +16.8 81 +24 +27 комфорт 1015.5 996.6 +19.3
07 19.08 ЮЗ 1 40 км ясно +22.4 +16.2 68 +27 +33 душно 1015.4 996.7
08 19.08 З 2 50 км ясно +24.6 +15.4 57 +28 +37 душно 1015.7 997.1
09 19.08 ЮЗ 2 60 км ясно +26.1 +14.9 50 +29 +41 жарко 1015.5 997.0
10 19.08 ЮЗ 3 60 км 1/0
[Ci fib]
+27.8 +15.4 47 +31 +42 душно 1015.6 997.2
11 19.08 ЮЗ 3 60 км 1/1 1000 м
[Cu hum]
+29.3 +16.1 45 +32 +44 душно 1015.3 997.0
12 19.08 З 3 60 км 1/1 1000 м
[Cu hum]
+30.5 +17.3 45 +34 +45 очень
душно
1015.5 997.3
13 19.08 З 3 60 км 1/1 1000 м
[Cu hum]
+31.0 +17.2 44 +35 +44 очень
душно
1015.5 997.3
14 19.08 СЗ 2 н/о н/о +32.0 +16.0 38 +35 +35 очень
душно
1015.4 997.2
15 19.08 Ю 2 н/о н/о +32.5 +17.2 40 +36 +36 очень
душно
1015.1 996.9
16 19.08 Ю 2 н/о н/о +31.5 +16.3 40 +34 +34 душно 1015.0 996.8
17 19.08 Ю 2 н/о н/о +30.5 +16.2 42 +34 +34 очень
душно
1015.0 996.7
18 19.08 ЮЗ 1 60 км 1/0
[Ci fib]
+29.2 +16.9 47 +33 +33 очень
душно
1014.5 996.2 +32.2
19 19.08 СВ 2 30 км 1/0
[Ci fib]
+27.6 +17.8 55 +32 +32 очень
душно
1015.3 996.9
20 19.08 СВ 2 30 км ясно +26.0 +17.9 61 +30 +30 душно 1015.9 997.4
21 19.08 СВ 2 н/о н/о +26.4 +17.3 57 +30 +30 душно 1016.9 998.3
00 20.08 СВ 1 н/о н/о +23.8 +17.6 68 +28 +28 душно 1017.2 998.4
03 20.08 ЮВ 1 н/о н/о +22.0 +17.6 76 +27 +27 душно 1017.9 999.0
04 20.08 штиль 0 н/о н/о +21.3 +17.6 79 +25 +25 комфорт 1018.4 999.5
05 20.08 В 1 н/о н/о +21.6 +17.9 79 +26 +26 душно 1018.5 999.6
06 20.08 З 1 25 км ясно +22.1 +18.3 79 +27 +30 душно 1018.2 999.4 +20.6
07 20.08 ЮЗ 1 30 км ясно +23.4 +18.1 72 +29 +36 душно 1018.2 999.5
08 20.08 Ю 1 40 км ясно +25.0 +17.8 64 +29 +40 душно 1018.3 999.7
09 20.08 Ю 2 40 км ясно +27.0 +17.7 57 +31 +43 душно 1018.3 999.8
10 20.08 В 1 50 км ясно +28.5 +17.6 52 +33 +50 очень
душно
1018.3 999.9
11 20.08 ЮЗ 2 50 км 1/1 1000 м
[Cu hum]
+30.1 +18.5 50 +35 +49 очень
душно
1017.8 999.5
12 20.08 З 1 50 км 1/1 1000 м
[Cu hum]
+30.4 +18.4 49 +35 +50 очень
душно
1017.5 999.2
13 20.08 Ю 2 50 км 1/1 1000 м
[Cu hum]
+31.9 +18.3 44 +36 +47 очень
душно
1016.8 998.6
14 20.08 Ю 3 н/о н/о +33.5 +17.7 39 +37 +37 очень
душно
1016.8 998.6
15 20.08 Ю 2 н/о н/о +33.3 +17.9 40 +37 +37 очень
душно
1016.6 998.4
16 20.08 Ю 3 н/о н/о +32.2 +16.2 38 +35 +35 очень
душно
1016.3 998.1
17 20.08 Ю 2 н/о н/о +31.1 +17.1 43 +35 +35 очень
душно
1016.3 998.0
18 20.08 ЮВ 2 40 км ясно +30.2 +18.5 50 +35 +35 очень
душно
1014.6 996.4 +33.1
19 20.08 СВ 1 30 км ясно +27.6 +19.3 61 +33 +33 очень
душно
1016.5 998.1
20 20.08 С 1 25 км ясно +27.2 +18.8 60 +32 +32 очень
душно
1016.7 998.3
21 20.08 штиль 0 н/о н/о +26.0 +19.0 65 +31 +31 очень
душно
1017.1 998.5
00 21.08 штиль 0 н/о н/о +24.4 +18.9 71 +29 +29 душно 1016.6 997.9
03 21.08 штиль 0 н/о н/о +23.1 +19.1 78 +29 +29 очень
душно
1017.1 998.3
04 21.08 В 1 н/о н/о +22.7 +19.1 80 +29 +29 очень
душно
1017.8 999.0
05 21.08 В 2 н/о н/о +22.7 +19.1 80 +29 +29 очень
душно
1018.9 1000.0
06 21.08 СВ 3 30 км 3/1 1000 м
[Cu med, cong Ac trans]
+24.1 +17.8 68 +28 +30 душно 1019.2 1000.5 +22.5
07 21.08 СВ 5 30 км 8/5 1000 м
[Cu Sc Ac trans]
+23.2 +16.2 65 +28 +29 душно 1020.2 1001.4
08 21.08 СВ 5 40 км 8/5 1000 м
[Cu Sc Ac trans]
+23.4 +15.3 60 +28 +29 душно 1021.1 1002.3
09 21.08 СВ 4 50 км 8/6 1000 м
[Cu Sc Ac trans]
+23.8 +14.6 56 +26 +29 жарко 1021.9 1003.1
10 21.08 СВ 3 50 км 8/5 1000 м
[Cu Sc Ac trans]
+24.9 +14.3 52 +27 +31 жарко 1022.1 1003.4
11 21.08 СВ 5 60 км 8/5 1000 м
[Cu Sc Ac trans]
+25.1 +13.2 48 +27 +30 жарко 1022.4 1003.7
12 21.08 СВ 5 60 км 8/4 1000 м
[Cu Sc Ac trans]
+25.4 +13.2 47 +27 +30 жарко 1022.3 1003.6
13 21.08 СВ 4 60 км 8/4 1000 м
[Cu Sc Ac trans]
+26.2 +13.1 44 +28 +31 жарко 1022.1 1003.5
14 21.08 СВ 4 н/о н/о +26.0 +12.9 44 +28 +28 жарко 1022.6 1003.9
15 21.08 СВ 4 н/о н/о +25.2 +11.4 42 +27 +27 жарко 1023.2 1004.4
16 21.08 СВ 4 н/о н/о +24.8 +11.8 44 +26 +26 жарко 1023.1 1004.3
17 21.08 В 4 н/о н/о +23.3 +12.1 49 +26 +26 жарко 1023.3 1004.4
18 21.08 В 4 >70 км 10/10 1500 м
[Sc]
+22.6 +12.6 53 +25 +25 комфорт 1023.0 1004.1 +26.6
19 21.08 В 3 50 км 8/4 1000 м
[Sc Ac trans]
+21.5 +12.6 57 +24 +24 комфорт 1023.5 1004.5
20 21.08 В 3 40 км 8/3 1000 м
[Sc Ac trans]
+21.1 +12.3 57 +23 +23 комфорт 1023.8 1004.8
21 21.08 В 3 н/о н/о +20.9 +11.3 54 +23 +23 комфорт 1024.9 1005.8
00 22.08 З 2 н/о н/о +20.4 +12.2 59 +23 +23 комфорт 1024.8 1005.7
03 22.08 СЗ 1 н/о н/о +19.7 +13.0 65 +22 +22 комфорт 1024.6 1005.4
04 22.08 З 1 н/о н/о +19.6 +13.1 66 +22 +22 комфорт 1024.7 1005.5
05 22.08 Ю 1 н/о н/о +20.1 +13.1 64 +23 +23 комфорт 1024.7 1005.6
06 22.08 Ю 1 30 км 9/9 1000 м
[Sc]
+20.1 +13.0 64 +23 +23 комфорт 1024.4 1005.3 +19.5
07 22.08 В 1 30 км 9/8 1000 м
[Sc Ac trans]
+20.4 +12.8 62 +24 +25 комфорт 1024.3 1005.3
08 22.08 СВ 1 30 км 9/6 1000 м
[Cu Sc Ac trans]
+21.0 +12.2 57 +24 +27 комфорт 1024.2 1005.2
09 22.08 В 2 40 км 8/5 1000 м
[Cu Sc Ac trans]
+22.0 +12.5 55 +25 +28 комфорт 1024.0 1005.1
10 22.08 СВ 2 40 км гроза без осадков 8/8 1000 м
[Cb cap Ac trans]
+23.6 +12.5 50 +26 +28 жарко 1023.7 1004.9
11 22.08 З 2 25 км гроза, ливневой дождь 10/9 1000 м
[Cb cap Ac trans]
+21.9 +14.4 62 +25 +26 комфорт 1023.6 1004.7
12 22.08 З 1 30 км гроза, ливневой дождь 10/8 1000 м
[Cb cap Ac trans]
+19.0 +16.8 87 +22 +23 комфорт 1023.8 1004.7 15
13 22.08 С 1 30 км гроза без осадков 9/8 1000 м
[Cb cap Ac trans]
+19.4 +16.6 84 +22 +24 комфорт 1023.5 1004.4
14 22.08 В 1 н/о н/о +21.6 +16.4 72 +25 +25 комфорт 1023.1 1004.1
15 22.08 З 1 н/о н/о +21.7 +17.6 78 +26 +26 душно 1022.7 1003.7
16 22.08 СЗ 1 н/о н/о +22.1 +16.9 72 +26 +26 душно 1022.5 1003.5
17 22.08 З 1 н/о н/о +21.8 +17.7 78 +26 +26 душно 1022.6 1003.6
18 22.08 С 1 40 км {гроза, дождь} 9/3 1000 м
[Cu Sc Ac As]
+21.2 +17.8 81 +25 +25 комфорт 1022.1 1003.2 +23.9 15
19 22.08 СЗ 1 30 км 9/0
[Ac As]
+20.4 +18.2 87 +25 +25 комфорт 1022.7 1003.7
20 22.08 З 1 25 км зарница 9/5 1000 м
[Sc Ac As]
+20.4 +17.6 84 +25 +25 комфорт 1023.2 1004.2
21 22.08 З 1 н/о н/о +20.5 +17.4 82 +25 +25 комфорт 1023.5 1004.4

 

Местоположение метеостанции Загреб-Градец (Хорватия): широта 45.82 долгота 15.98 высота над уровнем моря 157 м.

В архиве по умолчанию представлена погода в Загреб-Градеце за последнюю неделю. Архивные данные за месяц целиком и за предыдущие месяцы, начиная с января 2011 года, Вы можете получить, выбрав интересующий диапазон дат из раскрывающегося списка и нажав кнопку "Ввод!".


*Определитесь, кто Вы:
робот инопланетянин человек

Внимание! Время в таблицах - всемирное. Для получения местного времени необходимо прибавить поправку, которая равна 1 ч.

Смотрите также архив погоды в соседних городах и на ближайших метеорологических станциях:

Погода в Загребе (Хорватия) (4 км)
Погода в Пунтиярке (Хорватия) (11 км)
Погода в Загреб аэропорту (Хорватия) (12 км)
Погода в Крапине (Хорватия) (35 км)
Погода в Церки-об-Крки (Словения) (37 км)
Погода в Сисаке (Хорватия) (47 км)
Погода в Карловаце (Хорватия) (48 км)
Погода в Крижевцах (Хорватия) (50 км)
Погода на Лиске (Словения) (61 км)
Погода в Вараздине (Хорватия) (62 км)

Пояснения к столбцам:

Ветер - указаны скорость ветра в м/с - средняя за 10 мин, порывы в срок и между сроками (в фигурных скобках) и направление, откуда дует ветер: С - северный, СВ - северо-восточный, В - восточный, ЮВ - юго-восточный, Ю - южный, ЮЗ - юго-западный, З - западный, СЗ - северо-западный.
Видимость - горизонтальная дальность видимости в метрах или километрах. При видимости от 1 до 10 км при отсутствии осадков обычно наблюдается дымка, при ухудшении видимости до 1 км и менее - туман. В сухую погоду видимость может ухудшаться дымом, пылью или мглою.
Явления - указаны атмосферные явления, наблюдавшиеся в срок или в последний час перед сроком; фигурными скобками обозначены явления, наблюдавшиеся между сроками (за 1-3 часа до срока); квадратными скобками обозначены град или гололедные отложения с указанием их диаметра в мм.
Облачность - указаны через наклонную черту общая и нижняя облачность в баллах и высота нижней границы облаков в метрах; квадратными скобками обозначены формы облаков: Ci - перистые, Cs - перисто-слоистые, Cc - перисто-кучевые, Ac - высококучевые, As - высокослоистые, Sc - слоисто-кучевые, Ns - слоисто-дождевые, Cu - кучевые, Cb - кучево-дождевые. Подробнее классификацию облаков см. в Атласе облаков (PDF).
T - Температура воздуха - температура, измеренная на высоте 2 м над землей.
Td - Температура точки росы - температура, при понижении до которой содержащийся в воздухе водяной пар достигнет насыщения.
f - Относительная влажность воздуха - влажноcть воздуха, измеренная на высоте 2 м над землей.
Te - Эффективная температура - температура, которую ощущает одетый по сезону человек в тени. Характеристика душности погоды. При расчете учитывается влияние влажности воздуха и скорости ветра на теплоощущения человека.
Tes - Эффективная температура на солнце - температура, которую ощущает человек, с поправкой на солнечный нагрев. Характеристика знойности погоды. Зависит от высоты солнца над горизонтом, облачности и скорости ветра. Ночью, в пасмурную погоду, а также при ветре 12 м/с и более поправка равна нулю.
P - Атмосферное давление - приведенное к уровню моря атмосферное давление.
Po - Атмосферное давление - измеренное на уровне метеостанции атмосферное давление.
Tmin - Минимальная температура - минимум температуры воздуха на высоте 2 м над землей.
Tmax - Максимальная температура - максимум температуры воздуха на высоте 2 м над землей.
R - Количество осадков - Количество выпавших осадков за период времени, мм. При наведении курсора мыши на число - период времени, за который выпало указанное количество осадков.
R24 - Количество осадков - Количество выпавших осадков за 24 часа, мм.
S - Снежный покров - Высота снежного покрова, см. При наведении курсора мыши на число - состояние снежного покрова и степень покрытия местности в баллах.